contact:dominique.lefevre@mio.osupytheas.fr, maurice.libes@osupytheas.fr, didier.mallarino@osupytheas.fr
Project:EMSO http://www.emso-fr.org/EMSO-France
Depth: 2436.0 m
Title:EMSO Ligure Ouest : Data MII capteur AQUADOPP
Date,Latitude,Longitude,X_East,Y_North,Z_Up,Amplitude_X,Amplitude_Y,Amplitude_Z,Batterie,SoundSpeed,Heading,Pitch,Roll,Pressure,TIS,Speed,Direction
, degrees North, degrees East, m.s-1, m.s-1,m.s-1, 1, 1, 1, Volt, m.s-1, degree, degree, degree, dbar, degree_C, m.s-1, degree
2022-07-25T00:04:03,42.805,6.029,0.048,0.003,-0.039,102.0,102.0,102.0,13.4,1505.2,325.5,-0.8,1.8,2470.95,13.28,0.048,86.4
2022-07-25T00:07:03,42.805,6.029,0.038,-0.006,-0.026,102.0,104.0,101.0,13.4,1505.2,331.0,-0.8,1.8,2470.953,13.28,0.038,99.0
2022-07-25T00:10:03,42.805,6.029,0.031,0.0,-0.016,103.0,101.0,103.0,13.4,1505.2,325.0,-0.7,1.8,2470.884,13.28,0.03,90.0
2022-07-25T00:13:03,42.805,6.029,0.029,0.003,-0.012,102.0,102.0,101.0,13.4,1505.2,326.1,-0.8,1.8,2470.885,13.28,0.029,84.1
2022-07-25T00:16:03,42.805,6.029,0.021,-0.009,-0.055,101.0,102.0,102.0,13.3,1505.2,323.0,-0.8,1.8,2470.897,13.28,0.022,113.2
2022-07-25T00:19:03,42.805,6.029,0.025,-0.008,-0.029,101.0,103.0,101.0,13.3,1505.2,325.6,-0.8,1.8,2470.876,13.28,0.026,107.7
2022-07-25T00:22:03,42.805,6.029,0.045,0.01,-0.029,102.0,102.0,101.0,13.3,1505.2,325.6,-0.8,1.8,2470.885,13.28,0.046,77.5
2022-07-25T00:25:03,42.805,6.029,0.039,0.002,-0.008,102.0,102.0,101.0,13.4,1505.2,329.0,-0.7,1.8,2470.892,13.28,0.039,87.1
2022-07-25T00:28:03,42.805,6.029,0.016,-0.022,-0.016,102.0,103.0,101.0,13.4,1505.2,330.1,-0.8,1.8,2470.89,13.28,0.027,144.0
2022-07-25T00:31:03,42.805,6.029,0.052,-0.015,-0.043,103.0,102.0,101.0,13.4,1505.2,326.3,-0.7,1.8,2470.884,13.28,0.054,106.1
2022-07-25T00:34:03,42.805,6.029,0.024,-0.009,-0.05,102.0,102.0,101.0,13.4,1505.2,325.6,-0.8,1.8,2470.894,13.28,0.025,110.6
2022-07-25T00:37:03,42.805,6.029,0.017,0.02,0.002,102.0,102.0,101.0,13.4,1505.2,332.6,-0.8,1.8,2470.882,13.28,0.026,40.4
2022-07-25T00:40:03,42.805,6.029,0.041,0.013,-0.008,102.0,102.0,102.0,13.4,1505.2,326.3,-0.7,1.8,2470.88,13.28,0.043,72.4
2022-07-25T00:43:03,42.805,6.029,0.017,-0.006,0.001,105.0,103.0,105.0,13.4,1505.2,329.9,-0.8,1.9,2470.867,13.28,0.018,109.4
2022-07-25T00:46:03,42.805,6.029,0.024,-0.006,-0.018,103.0,102.0,101.0,13.4,1505.2,324.0,-0.8,1.8,2470.858,13.29,0.024,104.0
2022-07-25T00:49:03,42.805,6.029,0.042,0.007,-0.006,102.0,103.0,100.0,13.4,1505.2,322.8,-0.8,1.8,2470.885,13.29,0.042,80.5
2022-07-25T00:52:03,42.805,6.029,0.026,-0.006,-0.014,102.0,102.0,101.0,13.3,1505.2,328.8,-0.8,1.8,2470.882,13.28,0.026,103.0
2022-07-25T00:55:03,42.805,6.029,0.038,-0.011,-0.023,103.0,103.0,101.0,13.3,1505.2,327.9,-0.8,1.9,2470.874,13.28,0.039,106.1
2022-07-25T00:58:03,42.805,6.029,0.036,-0.019,-0.047,103.0,102.0,101.0,13.4,1505.2,329.1,-0.7,1.8,2470.893,13.28,0.04,117.8
2022-07-25T01:04:03,42.805,6.029,0.024,0.0,-0.035,102.0,105.0,101.0,13.4,1505.2,330.4,-0.8,1.8,2470.941,13.28,0.024,90.0
2022-07-25T01:07:03,42.805,6.029,0.047,0.012,-0.011,101.0,102.0,102.0,13.4,1505.2,319.2,-0.8,1.8,2470.898,13.28,0.048,75.7
2022-07-25T01:10:03,42.805,6.029,0.038,0.006,-0.003,101.0,102.0,101.0,13.3,1505.2,327.4,-0.7,1.8,2470.904,13.28,0.038,81.0
2022-07-25T01:13:03,42.805,6.029,0.029,-0.007,0.005,102.0,103.0,101.0,13.4,1505.2,326.8,-0.8,1.9,2470.931,13.28,0.029,103.6
2022-07-25T01:16:03,42.805,6.029,0.028,-0.016,-0.012,101.0,103.0,100.0,13.4,1505.2,329.4,-0.7,1.8,2470.899,13.28,0.032,119.7
2022-07-25T01:19:03,42.805,6.029,0.02,0.008,-0.051,102.0,102.0,101.0,13.4,1505.2,326.4,-0.8,1.8,2470.915,13.28,0.021,68.2
2022-07-25T01:22:03,42.805,6.029,0.039,0.003,-0.003,102.0,103.0,101.0,13.4,1505.2,323.0,-0.8,1.8,2470.87,13.28,0.039,85.6
2022-07-25T01:25:03,42.805,6.029,0.035,-0.009,-0.052,103.0,103.0,101.0,13.3,1505.2,323.8,-0.7,1.8,2470.883,13.28,0.036,104.4
2022-07-25T01:28:03,42.805,6.029,0.037,-0.006,-0.024,103.0,102.0,100.0,13.4,1505.2,325.7,-0.7,1.8,2470.875,13.28,0.037,99.2
2022-07-25T01:31:03,42.805,6.029,0.027,0.021,-0.005,102.0,103.0,100.0,13.4,1505.2,326.1,-0.7,1.8,2470.892,13.28,0.034,52.1
2022-07-25T01:34:03,42.805,6.029,0.024,-0.006,-0.036,102.0,102.0,100.0,13.4,1505.2,327.9,-0.8,1.8,2470.903,13.28,0.024,104.0
2022-07-25T01:37:03,42.805,6.029,0.028,0.014,-0.003,102.0,103.0,100.0,13.4,1505.2,324.4,-0.8,1.8,2470.859,13.28,0.031,63.4
2022-07-25T01:40:03,42.805,6.029,0.018,0.007,-0.036,102.0,102.0,100.0,13.4,1505.2,327.7,-0.8,1.8,2470.865,13.28,0.019,68.8
2022-07-25T01:43:03,42.805,6.029,0.041,-0.01,-0.046,103.0,103.0,101.0,13.4,1505.2,329.0,-0.8,1.8,2470.902,13.28,0.042,103.7
2022-07-25T01:46:03,42.805,6.029,0.03,0.021,-0.001,102.0,104.0,101.0,13.4,1505.2,319.6,-0.7,1.8,2470.893,13.28,0.036,55.0
2022-07-25T01:49:03,42.805,6.029,0.046,-0.01,-0.059,102.0,102.0,101.0,13.4,1505.2,319.2,-0.8,1.8,2470.847,13.28,0.047,102.3
2022-07-25T01:52:03,42.805,6.029,0.03,0.002,0.0,104.0,103.0,101.0,13.4,1505.2,330.3,-0.8,1.8,2470.892,13.28,0.03,86.2
2022-07-25T01:55:03,42.805,6.029,0.038,-0.011,-0.046,102.0,102.0,100.0,13.4,1505.2,325.8,-0.7,1.8,2470.897,13.28,0.039,106.1
2022-07-25T01:58:03,42.805,6.029,0.005,0.016,0.025,102.0,103.0,101.0,13.3,1505.2,320.7,-0.7,1.8,2470.892,13.28,0.016,17.4
2022-07-25T02:04:03,42.805,6.029,0.039,0.001,-0.033,102.0,104.0,101.0,13.4,1505.2,323.2,-0.8,1.8,2470.947,13.28,0.039,88.5
2022-07-25T02:07:03,42.805,6.029,0.042,0.01,-0.008,102.0,103.0,101.0,13.4,1505.2,329.0,-0.7,1.9,2470.923,13.28,0.043,76.6
2022-07-25T02:10:03,42.805,6.029,0.033,0.002,-0.008,102.0,102.0,101.0,13.4,1505.2,323.2,-0.7,1.8,2470.952,13.28,0.033,86.5
2022-07-25T02:13:03,42.805,6.029,0.03,0.007,-0.028,101.0,103.0,101.0,13.4,1505.2,329.8,-0.8,1.8,2470.97,13.28,0.03,76.9
2022-07-25T02:16:03,42.805,6.029,0.021,0.006,0.0,102.0,102.0,101.0,13.3,1505.2,319.9,-0.7,1.8,2470.899,13.28,0.021,74.1
2022-07-25T02:19:03,42.805,6.029,0.017,0.016,0.0,103.0,102.0,100.0,13.4,1505.2,325.5,-0.8,1.8,2470.905,13.28,0.023,46.7
2022-07-25T02:22:03,42.805,6.029,0.013,0.027,-0.013,101.0,102.0,101.0,13.4,1505.2,329.2,-0.8,1.8,2470.928,13.28,0.029,25.7
2022-07-25T02:25:03,42.805,6.029,0.012,0.018,-0.039,101.0,103.0,101.0,13.4,1505.2,328.7,-0.8,1.8,2470.937,13.28,0.021,33.7
2022-07-25T02:28:03,42.805,6.029,0.036,0.0,-0.028,102.0,103.0,101.0,13.3,1505.2,326.1,-0.8,1.8,2470.911,13.28,0.036,90.0
2022-07-25T02:31:03,42.805,6.029,0.03,0.01,0.005,102.0,102.0,101.0,13.4,1505.2,327.3,-0.7,1.8,2470.901,13.28,0.031,71.6
2022-07-25T02:34:03,42.805,6.029,0.02,0.005,-0.066,102.0,104.0,100.0,13.4,1505.2,320.5,-0.7,1.8,2470.927,13.28,0.02,76.0
2022-07-25T02:37:03,42.805,6.029,0.04,-0.022,-0.018,104.0,102.0,101.0,13.4,1505.2,330.7,-0.8,1.8,2470.844,13.28,0.045,118.8
2022-07-25T02:40:03,42.805,6.029,0.045,-0.01,-0.024,102.0,102.0,101.0,13.4,1505.2,332.2,-0.7,1.8,2470.919,13.28,0.046,102.5
2022-07-25T02:43:03,42.805,6.029,0.032,0.012,0.0,102.0,103.0,101.0,13.4,1505.2,327.3,-0.8,1.8,2470.921,13.28,0.034,69.4
2022-07-25T02:46:03,42.805,6.029,0.023,0.019,-0.01,102.0,102.0,100.0,13.4,1505.2,324.5,-0.7,1.8,2470.923,13.28,0.029,50.4
2022-07-25T02:49:03,42.805,6.029,0.033,0.0,-0.045,102.0,102.0,101.0,13.4,1505.2,326.3,-0.7,1.8,2470.91,13.28,0.033,90.0
2022-07-25T02:52:03,42.805,6.029,0.032,0.004,0.002,103.0,103.0,101.0,13.4,1505.2,333.1,-0.8,1.8,2470.962,13.28,0.032,82.9
2022-07-25T02:55:03,42.805,6.029,0.032,0.017,-0.016,102.0,102.0,101.0,13.4,1505.2,320.1,-0.7,1.8,2470.922,13.28,0.036,62.0
2022-07-25T02:58:03,42.805,6.029,0.047,-0.01,-0.01,102.0,102.0,101.0,13.4,1505.2,332.4,-0.8,1.9,2470.917,13.28,0.048,102.0
2022-07-25T03:04:03,42.805,6.029,0.039,0.015,-0.001,102.0,102.0,101.0,13.4,1505.2,325.5,-0.8,1.8,2470.952,13.28,0.041,69.0
2022-07-25T03:07:03,42.805,6.029,0.032,0.01,-0.008,102.0,103.0,101.0,13.4,1505.2,323.8,-0.8,1.8,2470.972,13.28,0.033,72.6
2022-07-25T03:10:03,42.805,6.029,0.033,0.011,-0.004,102.0,102.0,102.0,13.3,1505.2,332.9,-0.7,1.8,2470.979,13.28,0.034,71.6
2022-07-25T03:13:03,42.805,6.029,0.033,0.027,0.009,102.0,103.0,101.0,13.3,1505.2,327.6,-0.8,1.9,2470.926,13.28,0.042,50.7
2022-07-25T03:16:03,42.805,6.029,0.029,0.005,-0.003,103.0,102.0,101.0,13.4,1505.2,329.1,-0.7,1.8,2470.933,13.28,0.029,80.2
2022-07-25T03:19:03,42.805,6.029,0.041,0.005,-0.019,102.0,101.0,101.0,13.4,1505.2,330.0,-0.8,1.8,2470.951,13.28,0.041,83.0
2022-07-25T03:22:03,42.805,6.029,0.023,0.0,-0.03,103.0,103.0,100.0,13.4,1505.2,323.7,-0.7,1.8,2470.907,13.28,0.023,90.0
2022-07-25T03:25:03,42.805,6.029,0.035,-0.007,-0.039,100.0,102.0,102.0,13.3,1505.2,324.4,-0.7,1.8,2470.923,13.28,0.035,101.3
2022-07-25T03:28:03,42.805,6.029,0.048,0.015,0.024,103.0,103.0,101.0,13.4,1505.2,327.2,-0.8,1.8,2470.908,13.28,0.05,72.6
2022-07-25T03:31:03,42.805,6.029,0.044,0.016,-0.023,102.0,103.0,102.0,13.4,1505.2,329.3,-0.8,1.8,2470.899,13.28,0.046,70.0
2022-07-25T03:34:03,42.805,6.029,0.04,0.012,0.004,103.0,103.0,101.0,13.3,1505.2,321.1,-0.8,1.8,2470.918,13.28,0.041,73.3
2022-07-25T03:37:03,42.805,6.029,0.044,-0.011,0.012,102.0,101.0,102.0,13.4,1505.2,329.9,-0.8,1.8,2470.945,13.28,0.045,104.0
2022-07-25T03:40:03,42.805,6.029,0.024,-0.011,-0.014,102.0,102.0,100.0,13.3,1505.2,335.1,-0.8,1.8,2470.909,13.28,0.026,114.6
2022-07-25T03:43:03,42.805,6.029,0.05,0.001,0.01,101.0,103.0,100.0,13.4,1505.2,322.5,-0.8,1.8,2470.949,13.28,0.05,88.9
2022-07-25T03:46:03,42.805,6.029,0.033,0.015,-0.029,102.0,103.0,101.0,13.4,1505.2,320.5,-0.8,1.8,2470.927,13.28,0.036,65.6
2022-07-25T03:49:03,42.805,6.029,0.056,0.007,-0.018,103.0,102.0,101.0,13.3,1505.2,326.0,-0.7,1.8,2470.95,13.28,0.056,82.9
2022-07-25T03:52:03,42.805,6.029,0.068,0.005,0.025,102.0,103.0,100.0,13.4,1505.2,332.4,-0.7,1.8,2470.898,13.28,0.068,85.8
2022-07-25T03:55:03,42.805,6.029,0.033,0.006,-0.006,102.0,103.0,100.0,13.3,1505.2,323.0,-0.7,1.8,2470.942,13.28,0.033,79.7
2022-07-25T03:58:03,42.805,6.029,0.051,0.008,0.0,102.0,102.0,102.0,13.3,1505.2,328.4,-0.7,1.8,2470.922,13.28,0.051,81.1
2022-07-25T04:04:03,42.805,6.029,0.016,0.002,-0.021,102.0,103.0,101.0,13.4,1505.2,330.1,-0.8,1.9,2470.967,13.28,0.016,82.9
2022-07-25T04:07:03,42.805,6.029,0.035,0.003,-0.01,103.0,101.0,100.0,13.4,1505.2,323.4,-0.8,1.8,2470.966,13.28,0.035,85.1
2022-07-25T04:10:03,42.805,6.029,0.025,0.028,-0.001,101.0,102.0,101.0,13.3,1505.2,333.6,-0.8,1.8,2470.978,13.28,0.037,41.8
2022-07-25T04:13:03,42.805,6.029,0.042,-0.002,-0.013,102.0,103.0,100.0,13.4,1505.2,322.6,-0.8,1.9,2470.935,13.28,0.042,92.7
2022-07-25T04:16:03,42.805,6.029,0.051,0.0,-0.036,103.0,101.0,101.0,13.4,1505.2,330.4,-0.7,1.8,2470.961,13.28,0.051,90.0
2022-07-25T04:19:03,42.805,6.029,0.026,0.0,-0.035,102.0,103.0,101.0,13.4,1505.2,322.6,-0.8,1.8,2470.95,13.28,0.026,90.0
2022-07-25T04:22:03,42.805,6.029,0.027,-0.002,-0.015,103.0,102.0,101.0,13.4,1505.2,327.6,-0.8,1.8,2470.947,13.28,0.027,94.2
2022-07-25T04:25:03,42.805,6.029,0.039,0.001,-0.026,101.0,105.0,101.0,13.4,1505.2,333.1,-0.7,1.8,2470.928,13.28,0.039,88.5
2022-07-25T04:28:03,42.805,6.029,0.037,-0.002,-0.018,102.0,103.0,100.0,13.4,1505.2,332.9,-0.7,1.8,2470.94,13.28,0.037,93.1
2022-07-25T04:31:03,42.805,6.029,0.026,0.008,-0.023,103.0,102.0,100.0,13.4,1505.2,328.0,-0.7,1.8,2470.993,13.28,0.027,72.9
2022-07-25T04:34:03,42.805,6.029,0.043,0.008,0.005,102.0,103.0,101.0,13.4,1505.2,328.9,-0.8,1.9,2470.939,13.28,0.043,79.5
2022-07-25T04:37:03,42.805,6.029,0.053,0.006,-0.022,102.0,103.0,101.0,13.4,1505.2,321.4,-0.7,1.8,2470.921,13.28,0.053,83.5
2022-07-25T04:40:03,42.805,6.029,0.046,0.0,-0.018,101.0,102.0,101.0,13.3,1505.2,329.4,-0.7,1.8,2470.931,13.28,0.046,90.0
2022-07-25T04:43:03,42.805,6.029,0.036,0.001,-0.007,101.0,104.0,100.0,13.4,1505.2,321.5,-0.7,1.8,2470.936,13.28,0.036,88.4
2022-07-25T04:46:03,42.805,6.029,0.037,0.007,0.0,102.0,103.0,101.0,13.3,1505.2,326.4,-0.7,1.8,2470.965,13.28,0.037,79.3
2022-07-25T04:49:03,42.805,6.029,0.026,-0.003,-0.008,102.0,102.0,101.0,13.3,1505.2,320.2,-0.8,1.8,2470.927,13.28,0.026,96.6
2022-07-25T04:52:03,42.805,6.029,0.043,-0.012,-0.023,101.0,103.0,101.0,13.4,1505.2,328.6,-0.7,1.8,2470.942,13.28,0.044,105.6
2022-07-25T04:55:03,42.805,6.029,0.041,0.008,-0.032,101.0,103.0,101.0,13.3,1505.2,327.0,-0.8,1.8,2470.959,13.28,0.041,79.0
2022-07-25T04:58:03,42.805,6.029,0.032,0.005,-0.015,102.0,103.0,101.0,13.4,1505.2,323.1,-0.7,1.8,2471.008,13.28,0.032,81.1
2022-07-25T05:04:03,42.805,6.029,0.041,0.011,-0.002,103.0,102.0,101.0,13.4,1505.2,323.4,-0.8,1.8,2470.967,13.28,0.042,75.0
2022-07-25T05:07:03,42.805,6.029,0.022,0.014,-0.026,100.0,103.0,101.0,13.4,1505.2,320.8,-0.7,1.8,2470.985,13.28,0.026,57.5
2022-07-25T05:10:03,42.805,6.029,0.038,-0.004,-0.004,102.0,102.0,101.0,13.4,1505.2,333.6,-0.8,1.8,2470.99,13.28,0.038,96.0
2022-07-25T05:13:03,42.805,6.029,0.051,0.003,-0.014,101.0,102.0,101.0,13.4,1505.2,323.5,-0.8,1.8,2470.994,13.28,0.051,86.6
2022-07-25T05:16:03,42.805,6.029,0.028,0.0,-0.024,102.0,102.0,101.0,13.4,1505.2,326.7,-0.7,1.8,2470.949,13.28,0.028,90.0
2022-07-25T05:19:03,42.805,6.029,0.038,0.001,-0.016,102.0,102.0,101.0,13.4,1505.2,328.2,-0.8,1.8,2470.969,13.28,0.038,88.5
2022-07-25T05:22:03,42.805,6.029,0.032,0.0,-0.013,102.0,104.0,101.0,13.3,1505.2,321.8,-0.8,1.8,2470.921,13.28,0.032,90.0
2022-07-25T05:25:03,42.805,6.029,0.064,0.009,0.008,103.0,104.0,101.0,13.3,1505.2,328.0,-0.8,1.8,2470.993,13.28,0.064,82.0
2022-07-25T05:28:03,42.805,6.029,0.034,0.011,0.013,102.0,103.0,101.0,13.4,1505.2,321.5,-0.8,1.8,2470.967,13.28,0.035,72.1
2022-07-25T05:31:03,42.805,6.029,0.035,-0.007,-0.031,102.0,103.0,102.0,13.3,1505.2,328.0,-0.7,1.8,2470.968,13.28,0.035,101.3
2022-07-25T05:34:03,42.805,6.029,0.039,0.008,-0.003,102.0,103.0,101.0,13.3,1505.2,326.0,-0.7,1.8,2470.955,13.28,0.039,78.4
2022-07-25T05:37:03,42.805,6.029,0.069,-0.003,0.018,101.0,104.0,100.0,13.3,1505.2,324.7,-0.8,1.9,2470.986,13.28,0.069,92.5
2022-07-25T05:40:03,42.805,6.029,0.047,0.01,-0.023,103.0,103.0,100.0,13.3,1505.2,329.2,-0.8,1.8,2470.925,13.28,0.048,78.0
2022-07-25T05:43:03,42.805,6.029,0.048,0.004,0.038,102.0,102.0,102.0,13.4,1505.2,330.1,-0.8,1.8,2470.939,13.28,0.048,85.2
2022-07-25T05:46:03,42.805,6.029,0.024,-0.012,-0.025,102.0,103.0,100.0,13.3,1505.2,326.3,-0.8,1.8,2470.945,13.28,0.026,116.6
2022-07-25T05:49:03,42.805,6.029,0.059,-0.015,-0.002,103.0,102.0,101.0,13.4,1505.2,324.8,-0.8,1.8,2470.958,13.28,0.06,104.3
2022-07-25T05:52:03,42.805,6.029,0.045,0.004,-0.009,103.0,102.0,101.0,13.4,1505.2,325.3,-0.7,1.9,2470.961,13.28,0.045,84.9
2022-07-25T05:55:03,42.805,6.029,0.005,-0.016,-0.039,101.0,104.0,101.0,13.4,1505.2,328.2,-0.8,1.8,2470.95,13.28,0.016,162.6
2022-07-25T05:58:03,42.805,6.029,0.028,0.01,0.022,102.0,104.0,100.0,13.3,1505.2,321.9,-0.8,1.8,2470.979,13.28,0.029,70.4
2022-07-25T06:04:03,42.805,6.029,0.028,0.017,-0.026,102.0,103.0,101.0,13.4,1505.2,319.1,-0.8,1.8,2470.984,13.28,0.032,58.7
2022-07-25T06:07:03,42.805,6.029,0.038,0.01,0.011,102.0,103.0,100.0,13.4,1505.2,322.3,-0.8,1.8,2470.941,13.28,0.039,75.3
2022-07-25T06:10:03,42.805,6.029,0.037,0.009,-0.011,102.0,103.0,101.0,13.4,1505.2,325.2,-0.8,1.8,2470.974,13.28,0.038,76.3
2022-07-25T06:13:03,42.805,6.029,0.035,-0.007,-0.009,103.0,102.0,101.0,13.4,1505.2,332.9,-0.8,1.8,2470.977,13.28,0.035,101.3
2022-07-25T06:16:03,42.805,6.029,0.027,0.023,-0.003,102.0,104.0,102.0,13.4,1505.2,325.2,-0.7,1.8,2470.952,13.28,0.035,49.6
2022-07-25T06:19:03,42.805,6.029,0.053,0.01,-0.009,103.0,103.0,101.0,13.4,1505.2,328.8,-0.8,1.8,2470.914,13.28,0.053,79.3
2022-07-25T06:22:03,42.805,6.029,0.054,0.003,0.002,103.0,104.0,101.0,13.4,1505.2,326.6,-0.8,1.8,2470.913,13.28,0.054,86.8
2022-07-25T06:25:03,42.805,6.029,0.035,-0.016,-0.004,103.0,102.0,101.0,13.3,1505.2,332.6,-0.7,1.8,2470.942,13.28,0.038,114.6
2022-07-25T06:28:03,42.805,6.029,0.064,0.009,-0.001,101.0,102.0,102.0,13.4,1505.2,320.2,-0.8,1.8,2470.921,13.28,0.064,82.0
2022-07-25T06:49:03,42.805,6.029,0.053,-0.005,-0.015,103.0,103.0,101.0,13.4,1505.2,327.6,-0.8,1.8,2471.266,13.28,0.053,95.4
2022-07-25T06:52:03,42.805,6.029,0.048,0.0,0.014,103.0,104.0,101.0,13.4,1505.2,319.6,-0.7,1.8,2471.193,13.28,0.048,90.0
2022-07-25T06:55:03,42.805,6.029,0.052,0.0,0.006,103.0,102.0,101.0,13.3,1505.2,332.1,-0.7,1.8,2471.116,13.28,0.052,90.0
2022-07-25T06:58:03,42.805,6.029,0.048,-0.01,-0.009,101.0,103.0,102.0,13.4,1505.2,327.6,-0.7,1.8,2471.117,13.28,0.049,101.8
2022-07-25T07:04:03,42.805,6.029,0.03,-0.009,-0.026,103.0,102.0,101.0,13.3,1505.2,331.6,-0.7,1.8,2471.04,13.28,0.031,106.7
2022-07-25T07:07:03,42.805,6.029,0.045,0.011,-0.016,102.0,104.0,101.0,13.3,1505.2,325.3,-0.8,1.8,2471.032,13.28,0.046,76.3
2022-07-25T07:10:03,42.805,6.029,0.044,0.012,0.042,104.0,103.0,100.0,13.4,1505.2,327.5,-0.8,1.8,2471.022,13.28,0.045,74.7
2022-07-25T07:13:03,42.805,6.029,0.038,-0.016,-0.023,103.0,103.0,101.0,13.4,1505.2,321.4,-0.7,1.8,2471.005,13.28,0.041,112.8
2022-07-25T07:16:03,42.805,6.029,0.026,-0.002,-0.007,103.0,102.0,102.0,13.4,1505.2,331.9,-0.7,1.9,2470.969,13.28,0.026,94.4
2022-07-25T07:19:03,42.805,6.029,0.023,-0.017,-0.026,102.0,101.0,101.0,13.4,1505.2,326.3,-0.7,1.8,2470.937,13.28,0.028,126.5
2022-07-25T07:22:03,42.805,6.029,0.029,0.016,0.01,101.0,105.0,101.0,13.4,1505.2,332.4,-0.8,1.8,2470.951,13.28,0.033,61.1
2022-07-25T07:25:03,42.805,6.029,0.034,-0.013,0.004,104.0,103.0,101.0,13.4,1505.2,327.5,-0.8,1.8,2470.906,13.28,0.036,110.9
2022-07-25T07:28:03,42.805,6.029,0.035,0.014,-0.024,102.0,102.0,101.0,13.3,1505.2,320.8,-0.8,1.8,2470.885,13.28,0.037,68.2
2022-07-25T07:31:03,42.805,6.029,0.065,-0.018,-0.006,102.0,103.0,101.0,13.3,1505.2,326.6,-0.8,1.8,2470.899,13.28,0.067,105.5
2022-07-25T07:34:03,42.805,6.029,0.044,-0.008,-0.026,104.0,103.0,100.0,13.3,1505.2,327.4,-0.7,1.8,2470.872,13.28,0.044,100.3
2022-07-25T07:37:03,42.805,6.029,0.031,0.0,-0.037,102.0,103.0,101.0,13.4,1505.2,332.6,-0.8,1.8,2470.898,13.28,0.03,90.0
2022-07-25T07:40:03,42.805,6.029,0.058,0.026,0.026,103.0,102.0,101.0,13.4,1505.2,324.3,-0.7,1.8,2470.91,13.28,0.063,65.9
2022-07-25T07:43:03,42.805,6.029,0.038,0.003,0.002,102.0,103.0,101.0,13.3,1505.2,330.5,-0.7,1.8,2470.905,13.28,0.038,85.5
2022-07-25T07:46:03,42.805,6.029,0.04,0.001,0.001,102.0,103.0,101.0,13.4,1505.2,323.1,-0.8,1.8,2470.899,13.28,0.04,88.6
2022-07-25T07:49:03,42.805,6.029,0.024,0.012,-0.041,103.0,102.0,101.0,13.3,1505.2,319.1,-0.8,1.8,2470.895,13.28,0.026,63.4
2022-07-25T07:52:03,42.805,6.029,0.066,-0.009,-0.027,102.0,103.0,101.0,13.4,1505.2,327.4,-0.8,1.8,2470.851,13.28,0.066,97.8
2022-07-25T07:55:03,42.805,6.029,0.043,-0.021,-0.031,103.0,103.0,101.0,13.3,1505.2,332.4,-0.7,1.8,2470.897,13.28,0.047,116.0
2022-07-25T07:58:03,42.805,6.029,0.038,0.016,-0.02,104.0,102.0,101.0,13.4,1505.2,322.2,-0.7,1.8,2470.846,13.28,0.041,67.2
2022-07-25T08:04:03,42.805,6.029,0.042,-0.007,-0.02,103.0,102.0,101.0,13.4,1505.2,333.9,-0.7,1.8,2470.918,13.28,0.042,99.5
2022-07-25T08:07:03,42.805,6.029,0.026,0.005,-0.021,103.0,103.0,100.0,13.3,1505.2,323.8,-0.7,1.8,2470.909,13.28,0.026,79.1
2022-07-25T08:10:03,42.805,6.029,0.03,0.016,-0.007,103.0,102.0,101.0,13.4,1505.2,325.7,-0.7,1.8,2470.93,13.28,0.034,61.9
2022-07-25T08:13:03,42.805,6.029,0.018,0.001,0.003,103.0,103.0,101.0,13.4,1505.2,328.0,-0.8,1.8,2470.935,13.28,0.018,86.8
2022-07-25T08:16:03,42.805,6.029,0.061,-0.003,0.001,104.0,102.0,101.0,13.4,1505.2,323.8,-0.7,1.8,2470.893,13.28,0.061,92.8
2022-07-25T08:19:03,42.805,6.029,0.033,-0.006,0.021,102.0,103.0,102.0,13.4,1505.2,323.6,-0.8,1.8,2470.888,13.28,0.033,100.3
2022-07-25T08:22:03,42.805,6.029,0.051,0.013,0.001,102.0,104.0,101.0,13.4,1505.2,327.9,-0.8,1.8,2470.909,13.28,0.052,75.7
2022-07-25T08:25:03,42.805,6.029,0.026,0.005,-0.029,103.0,103.0,101.0,13.4,1505.2,325.3,-0.8,1.8,2470.901,13.28,0.026,79.1
2022-07-25T08:28:03,42.805,6.029,0.05,0.004,-0.013,103.0,103.0,101.0,13.4,1505.2,322.3,-0.8,1.8,2470.871,13.28,0.05,85.4
2022-07-25T08:31:03,42.805,6.029,0.043,0.014,0.003,104.0,102.0,101.0,13.3,1505.2,324.3,-0.8,1.8,2470.855,13.28,0.045,72.0
2022-07-25T08:34:03,42.805,6.029,0.032,0.021,-0.014,102.0,102.0,101.0,13.4,1505.2,319.7,-0.8,1.8,2470.865,13.28,0.038,56.7
2022-07-25T08:37:03,42.805,6.029,0.046,-0.009,-0.004,103.0,103.0,101.0,13.4,1505.2,329.8,-0.8,1.8,2470.86,13.28,0.046,101.1
2022-07-25T08:40:03,42.805,6.029,0.04,0.015,0.002,102.0,103.0,102.0,13.4,1505.2,324.5,-0.8,1.8,2470.88,13.28,0.042,69.4
2022-07-25T08:43:03,42.805,6.029,0.038,-0.008,-0.004,102.0,102.0,101.0,13.4,1505.2,328.5,-0.8,1.8,2470.819,13.28,0.038,101.9
2022-07-25T08:46:03,42.805,6.029,0.044,0.006,-0.024,103.0,103.0,101.0,13.3,1505.2,326.1,-0.7,1.8,2470.852,13.28,0.044,82.2
2022-07-25T08:49:03,42.805,6.029,0.01,-0.008,-0.038,102.0,103.0,101.0,13.4,1505.2,320.1,-0.8,1.8,2470.838,13.28,0.012,128.7
2022-07-25T08:52:03,42.805,6.029,0.038,0.004,-0.004,103.0,103.0,102.0,13.3,1505.2,329.6,-0.7,1.8,2470.854,13.28,0.038,84.0
2022-07-25T08:55:03,42.805,6.029,0.047,-0.007,-0.032,102.0,103.0,101.0,13.3,1505.2,323.8,-0.8,1.8,2470.881,13.28,0.047,98.5
2022-07-25T08:58:03,42.805,6.029,0.032,0.004,-0.012,103.0,103.0,101.0,13.4,1505.2,323.0,-0.8,1.8,2470.878,13.28,0.032,82.9
2022-07-25T09:04:03,42.805,6.029,0.054,0.006,0.002,104.0,103.0,100.0,13.3,1505.2,319.8,-0.8,1.8,2470.882,13.28,0.054,83.7
2022-07-25T09:07:03,42.805,6.029,0.045,0.003,-0.026,103.0,103.0,102.0,13.4,1505.2,320.2,-0.7,1.8,2470.904,13.28,0.045,86.2
2022-07-25T09:10:03,42.805,6.029,0.042,0.023,0.019,103.0,103.0,101.0,13.3,1505.2,321.9,-0.8,1.8,2470.87,13.28,0.047,61.3
2022-07-25T09:13:03,42.805,6.029,0.043,-0.003,0.001,103.0,103.0,101.0,13.4,1505.2,320.5,-0.8,1.8,2470.858,13.28,0.043,94.0
2022-07-25T09:16:03,42.805,6.029,0.033,0.001,-0.026,102.0,102.0,101.0,13.3,1505.2,323.8,-0.8,1.8,2470.849,13.28,0.033,88.3
2022-07-25T09:19:03,42.805,6.029,0.048,-0.012,-0.015,101.0,103.0,102.0,13.3,1505.2,326.1,-0.8,1.8,2470.928,13.28,0.049,104.0
2022-07-25T09:22:03,42.805,6.029,0.04,-0.001,0.004,102.0,104.0,101.0,13.4,1505.2,324.7,-0.7,1.8,2470.843,13.28,0.04,91.4
2022-07-25T09:25:03,42.805,6.029,0.029,0.007,0.025,102.0,103.0,101.0,13.4,1505.2,326.7,-0.7,1.7,2470.886,13.28,0.029,76.4
2022-07-25T09:28:03,42.805,6.029,0.032,0.006,-0.023,103.0,103.0,101.0,13.4,1505.2,318.9,-0.7,1.8,2470.854,13.28,0.032,79.4
2022-07-25T09:31:03,42.805,6.029,0.037,-0.008,-0.028,103.0,104.0,101.0,13.4,1505.2,328.3,-0.8,1.8,2470.868,13.28,0.037,102.2
2022-07-25T09:34:03,42.805,6.029,0.022,-0.005,-0.02,102.0,102.0,101.0,13.3,1505.2,321.7,-0.7,1.8,2470.847,13.28,0.022,102.8
2022-07-25T09:37:03,42.805,6.029,0.047,0.013,0.025,103.0,103.0,100.0,13.4,1505.2,333.1,-0.8,1.9,2470.825,13.28,0.048,74.5
2022-07-25T09:40:03,42.805,6.029,0.031,0.011,0.004,103.0,102.0,102.0,13.3,1505.2,319.9,-0.8,1.8,2470.825,13.28,0.032,70.5
2022-07-25T09:43:03,42.805,6.029,0.052,-0.003,-0.014,102.0,101.0,102.0,13.3,1505.2,321.7,-0.8,1.9,2470.817,13.28,0.052,93.3
2022-07-25T09:46:03,42.805,6.029,0.037,0.003,-0.016,101.0,104.0,102.0,13.4,1505.2,322.5,-0.8,1.8,2470.829,13.28,0.037,85.4
2022-07-25T09:49:03,42.805,6.029,0.037,0.007,0.013,102.0,103.0,101.0,13.4,1505.2,323.3,-0.7,1.8,2470.863,13.28,0.037,79.3
2022-07-25T09:52:03,42.805,6.029,0.024,0.007,-0.009,103.0,103.0,102.0,13.4,1505.2,325.1,-0.8,1.8,2470.84,13.28,0.025,73.7
2022-07-25T09:55:03,42.805,6.029,0.051,0.008,-0.006,102.0,102.0,100.0,13.3,1505.2,327.5,-0.8,1.8,2470.875,13.28,0.051,81.1
2022-07-25T09:58:03,42.805,6.029,0.044,0.002,-0.006,101.0,103.0,101.0,13.4,1505.2,324.7,-0.8,1.8,2470.88,13.28,0.044,87.4
2022-07-25T10:04:03,42.805,6.029,0.033,0.001,0.008,102.0,104.0,101.0,13.4,1505.2,329.6,-0.8,1.8,2470.897,13.28,0.033,88.3
2022-07-25T10:07:03,42.805,6.029,0.037,-0.008,-0.015,102.0,102.0,100.0,13.3,1505.2,328.8,-0.8,1.8,2470.902,13.28,0.037,102.2
2022-07-25T10:10:03,42.805,6.029,0.026,0.031,0.011,102.0,103.0,102.0,13.4,1505.2,329.7,-0.8,1.8,2470.868,13.28,0.04,40.0
2022-07-25T10:13:03,42.805,6.029,0.051,-0.011,0.002,104.0,103.0,101.0,13.4,1505.2,327.8,-0.8,1.8,2470.842,13.28,0.052,102.2
2022-07-25T10:16:03,42.805,6.029,0.056,-0.01,-0.014,104.0,101.0,101.0,13.3,1505.2,332.0,-0.8,1.8,2470.848,13.28,0.056,100.1
2022-07-25T10:19:03,42.805,6.029,0.049,-0.01,0.005,101.0,104.0,101.0,13.3,1505.2,334.1,-0.8,1.8,2470.865,13.28,0.05,101.5
2022-07-25T10:22:03,42.805,6.029,0.032,0.001,-0.013,102.0,102.0,101.0,13.3,1505.2,325.0,-0.8,1.8,2470.826,13.28,0.032,88.2